Flag for U.S.A. Weather past 2 weeks in Wright, Florida, U.S.A.

Now
61 °F

Sunny.


Feels Like: 61 °F
Forecast: 64 / 83 °F
Wind: 12 mph from Northeast

Location: Hurlburt Field

Current Time: Sep 23, 2014 at 8:15:54 AM

Latest Report: Sep 23, 2014 at 6:58 AM


Visibility: 10 mi

Pressure: 30.06 "Hg

Humidity: 83%

Dew point: 56 °F

Location of WrightLocation

Historic Weather in Wright — Graph

°F

Wright temperature yesterday

Maximum temperature yesterday: 89 °F (at 11:58 AM)
Minimum temperature yesterday: 66 °F (at 4:58 AM)
Average temperature yesterday: 76 °F

Past Weeks' High & Low Weather Summary

 TemperatureHumidityPressure
High91 °F (Sep 13, 1:58 PM)89% (Sep 8, 10:45 PM)30.11 "Hg (Sep 8, 10:45 PM)
Low61 °F (Sep 23, 6:58 AM)40% (Sep 22, 11:58 AM)29.87 "Hg (Sep 17, 5:58 PM)
Average79 °F73%30.00 "Hg
* Reported Sep 8 6:58 AM — Sep 23 6:58 AM, Wright, Weather by CustomWeather, © 2014

Note: Actual official high and low records may vary slightly from our data, if they occured in-between our weather recording intervals... More about our weather records

Advertising

Wright weather history for previous 24 hours

 ConditionsComfort  
Time TempWeatherWind HumidityBarometerVisibility
6:58 AM
Sep 23
61 °FSunny.12 mph83%30.06 "Hg10 mi
5:58 AM62 °FClear.9 mph81%30.03 "Hg10 mi
4:58 AM62 °FClear.8 mph81%30.02 "Hg10 mi
3:58 AM64 °FClear.9 mph85%30.01 "Hg10 mi
2:58 AM65 °FClear.7 mph88%30.02 "Hg10 mi
1:58 AM65 °FClear.9 mph88%30.02 "Hg9 mi
12:58 AM66 °FClear.6 mph87%30.02 "Hg10 mi
11:58 PM
Sep 22
67 °FClear.6 mph86%30.02 "Hg10 mi
10:58 PM68 °FClear.6 mph84%30.03 "Hg10 mi
9:58 PM70 °FClear.6 mph82%30.02 "Hg10 mi
8:58 PM71 °FClear.6 mph80%30.02 "Hg10 mi
7:58 PM73 °FPassing clouds.8 mph77%30.01 "Hg10 mi
6:58 PM75 °FPassing clouds.8 mph71%29.99 "Hg10 mi
5:58 PM77 °FBroken clouds.8 mph68%29.98 "Hg10 mi
4:58 PM80 °FScattered clouds.10 mph67%29.96 "Hg10 mi
4:03 PM79 °FThundershowers. Scattered clouds.7 mph74%29.96 "Hg10 mi
3:58 PM78 °FThundershowers. Scattered clouds.8 mph78%29.96 "Hg10 mi
3:01 PM84 °FThunderstorms. Broken clouds.7 mph58%29.97 "Hg1 mi
2:58 PM87 °FThunderstorms. Partly sunny.18 mph50%29.96 "Hg4 mi
1:58 PM87 °FPassing clouds.12 mph50%29.96 "Hg10 mi
12:58 PM88 °FSunny.8 mph46%29.98 "Hg10 mi
11:58 AM89 °FSunny.3 mph40%30.01 "Hg10 mi
10:58 AM86 °FSunny.7 mph48%30.01 "Hg10 mi
9:58 AM84 °FSunny.7 mph54%30.03 "Hg10 mi
8:58 AM79 °FSunny.5 mph63%30.03 "Hg10 mi
Weather by CustomWeather, © 2014

See weather overviewHow to use our weather pages